SCP
0 0 0 0 0 0 0 0 0 0 0 0 0 1 1 1 1 1 2 2 3 4 5 5 5 6 8 9 10 10 9 8 7 6 5 6 5 4 3 3 2 2 2 2
0 0 0 0 0 0 0 0 0 0 0 0 0 1 1 1 1 1 2 2 3 4 6 6 6 7 9 9 10 10 9 8 7 6 6 6 5 4 3 3 3 2 2 2
0 0 0 0 0 0 0 0 0 0 0 0 0 1 1 1 1 1 2 2 3 5 7 8 8 9 9 9 9 10 10 8 7 6 5 5 5 4 3 3 3 3 3 3
0 0 0 0 0 0 0 0 0 0 0 0 0 1 1 2 1 1 2 2 3 6 8 9 9 9 9 8 9 9 9 8 7 6 5 5 4 4 3 3 3 4 4 4
0 0 0 0 0 0 0 0 0 0 0 0 0 0 1 2 2 1 2 3 5 7 9 9 9 8 7 7 8 9 9 8 7 5 5 5 4 4 3 3 3 4 4 5
0 0 0 0 0 0 0 0 0 0 0 0 0 0 1 2 2 2 3 5 7 9 9 9 8 8 7 7 7 8 8 8 6 5 5 4 4 3 4 4 4 4 5 5
0 0 0 0 0 0 0 0 0 0 0 0 0 0 1 3 4 4 5 7 8 9 8 8 8 7 6 6 7 8 8 8 7 6 5 5 4 4 4 4 4 4 5 5
0 0 0 0 0 0 0 0 0 0 0 0 0 1 2 4 5 5 5 6 6 6 6 6 7 7 6 6 7 8 8 8 7 7 6 5 5 4 4 4 4 4 4 4
0 0 0 0 0 0 0 0 0 0 0 0 0 1 2 3 4 4 4 4 4 4 4 5 6 7 7 7 7 9 9 9 8 7 6 6 6 5 4 4 4 4 4 4
0 0 0 0 0 0 0 0 0 0 0 0 0 1 2 2 2 3 3 4 4 4 4 5 6 7 8 8 8 9 10 10 8 7 6 6 6 5 8 10 7 4 4 4
0 0 0 0 0 0 0 0 0 0 0 0 0 1 2 3 3 3 3 4 4 4 4 5 6 8 8 9 9 9 9 9 8 7 7 6 5 5 10 15 9 3 3 4
0 0 0 0 0 0 0 0 0 0 0 0 0 1 3 4 4 3 4 4 4 4 5 6 7 9 9 9 9 9 9 8 8 7 7 6 5 5 8 10 7 3 3 4
0 0 0 0 0 0 0 0 0 0 0 0 0 2 4 5 4 4 4 5 4 4 5 6 7 8 9 10 10 9 9 8 8 7 7 6 5 5 5 5 4 4 4 4
0 0 0 0 0 0 0 0 0 0 0 0 1 2 4 5 4 4 5 5 4 4 4 5 6 8 9 10 10 9 8 8 8 7 7 6 6 5 5 5 4 4 4 4
0 0 0 0 0 0 0 0 0 0 0 0 1 3 4 5 5 5 5 5 4 4 4 5 7 8 9 9 9 9 9 9 9 8 7 7 6 6 6 5 5 4 4 4
1 1 1 0 0 0 0 0 0 0 0 0 2 4 4 5 5 5 5 5 5 4 4 5 7 9 9 8 9 10 11 11 10 9 7 7 6 6 6 5 5 4 5 5
1 2 1 1 0 0 0 0 0 0 0 1 3 4 5 4 5 5 5 5 5 4 4 5 8 11 12 11 11 13 13 12 10 9 8 7 7 7 6 6 5 5 5 6
2 2 2 1 0 0 0 0 0 0 1 2 4 5 5 5 5 6 6 6 5 5 6 8 11 16 17 15 13 12 11 11 10 9 8 7 7 7 7 6 5 5 6 6
2 2 2 1 1 0 0 0 0 1 1 3 4 5 5 5 5 5 6 6 6 7 9 14 19 21 19 14 11 9 9 9 9 9 8 7 7 6 6 6 6 6 6 6
1 2 1 1 1 1 1 1 1 1 2 3 4 4 4 4 4 5 6 7 8 9 13 18 22 21 16 11 9 8 8 8 8 8 8 7 7 6 6 6 6 6 7 7
1 1 1 1 1 2 3 2 2 2 4 4 4 5 5 6 6 7 8 9 11 13 16 18 18 15 12 9 9 9 9 8 8 8 8 8 7 6 6 6 6 6 7 7
1 1 1 2 2 3 5 5 4 6 7 7 7 7 7 7 7 8 9 11 13 15 15 14 13 11 10 8 8 10 11 10 9 8 8 7 7 6 6 6 6 6 6 6
2 2 2 2 3 5 7 8 8 9 10 10 9 9 9 8 8 9 10 11 12 12 11 10 9 9 8 7 7 8 10 9 9 8 7 7 7 6 6 5 6 6 5 4
4 3 3 4 5 6 7 9 10 9 9 10 10 9 8 8 9 10 10 10 9 8 7 7 8 7 6 6 6 6 6 6 7 7 6 7 7 7 6 6 6 5 4 3
5 5 4 5 6 7 7 7 7 8 9 10 9 8 7 7 8 9 9 8 7 7 7 7 8 7 6 5 5 5 5 5 5 5 5 6 6 6 7 6 6 5 4 3
6 6 5 5 7 8 8 7 6 7 9 10 9 7 7 7 7 7 7 6 6 7 8 8 8 7 6 5 5 5 5 4 4 4 5 5 5 6 6 6 5 4 3 2
Wind_Speed
12 12 14 15 16 15 12 10 10 7 6 6 7 7 7 8 9 11 12 14 15 15 16 15 15 14 14 12 11 10 9 8 6 5 5 4 4 3 2 3 4 5 4 4
12 16 17 15 14 14 14 13 12 6 6 6 7 9 9 10 11 11 12 13 15 15 16 16 14 14 14 12 12 11 10 9 8 6 4 4 4 3 4 3 5 5 5 5
19 14 16 16 15 14 15 14 12 9 6 7 10 12 12 12 11 12 13 13 14 16 17 17 16 14 14 14 13 12 11 10 9 7 5 4 3 2 3 4 4 5 6 6
18 16 12 15 15 14 13 13 12 10 8 8 11 10 11 13 13 12 11 12 13 14 17 17 16 15 14 14 13 11 11 10 9 8 7 7 6 5 5 4 4 6 6 6
15 15 15 15 15 14 13 10 10 12 11 11 12 12 8 12 13 13 13 13 12 13 15 17 17 15 14 14 13 11 10 10 10 9 8 7 6 5 3 4 5 5 5 6
17 15 14 14 13 13 12 10 9 11 10 13 14 12 9 8 11 11 11 12 12 12 14 15 16 14 13 13 12 12 11 10 10 10 9 8 7 6 5 6 5 5 4 5
17 16 14 12 14 14 14 10 8 10 10 12 12 12 6 5 6 7 8 10 12 12 13 14 15 15 13 12 12 11 12 10 10 10 9 8 7 7 7 6 5 5 4 4
17 17 16 14 15 13 15 16 11 9 9 9 12 11 7 6 5 5 5 6 8 11 11 13 14 14 13 13 12 11 12 11 10 10 8 7 7 6 6 6 5 5 4 4
14 16 16 16 16 16 17 16 17 14 13 10 9 11 9 8 6 7 6 6 7 8 9 11 13 13 13 13 12 12 12 10 10 9 8 7 7 6 6 5 5 4 4 4
11 11 15 16 14 17 17 16 12 12 10 11 10 10 8 12 10 8 7 7 7 7 8 10 10 11 10 11 10 10 10 10 9 9 8 7 7 6 4 4 5 4 4 3
16 10 13 16 16 17 17 17 14 10 10 11 8 3 3 9 9 8 7 6 7 7 8 8 8 9 9 9 10 9 9 9 8 8 7 5 6 6 5 4 3 3 3 3
15 10 11 16 15 16 16 16 15 11 9 10 9 3 3 6 8 8 6 6 6 6 6 7 8 8 7 7 8 9 8 8 8 7 6 5 4 4 4 4 3 3 3 2
12 9 10 13 14 16 16 17 16 14 10 10 10 3 4 5 5 7 8 8 7 6 6 6 6 6 6 6 6 7 7 7 7 6 6 4 3 3 3 3 3 3 2 2
9 9 11 12 12 16 17 17 16 15 11 12 11 5 5 6 6 7 9 9 8 7 6 6 6 6 5 5 4 5 5 6 6 5 5 4 3 3 3 2 2 2 2 2
9 11 13 14 11 13 17 17 18 17 15 13 9 9 8 6 6 6 7 8 8 7 6 7 7 6 6 5 4 4 4 5 5 5 5 4 4 3 3 3 3 3 3 3
9 8 11 15 14 12 14 17 17 18 17 15 10 5 4 5 5 5 6 7 7 7 7 7 7 7 6 5 5 5 5 5 5 5 5 5 4 4 3 3 4 3 3 4
11 8 10 12 13 13 14 14 15 14 14 13 10 6 5 6 6 6 6 6 6 7 7 7 7 7 6 6 6 6 6 6 6 6 6 5 5 4 4 4 5 5 5 5
8 7 7 10 10 14 10 11 12 13 12 9 7 5 5 4 7 7 6 5 6 7 8 8 8 8 7 7 8 8 7 7 7 6 6 5 6 5 5 6 6 5 5 5
8 8 8 9 11 12 9 10 11 10 7 5 5 3 3 5 7 6 6 6 7 8 8 8 9 9 8 8 9 9 8 7 7 6 6 6 6 6 6 6 6 5 6 6
11 7 8 9 10 10 8 8 7 7 6 5 5 5 4 5 4 5 8 8 9 9 9 9 10 10 9 8 9 9 8 8 7 7 7 7 6 6 7 7 7 6 6 6
14 12 12 11 10 6 4 5 7 8 4 4 5 6 4 2 3 7 10 10 10 10 11 10 10 9 8 9 9 9 9 8 7 8 7 7 7 7 7 7 6 6 6 7
12 12 12 11 10 5 3 3 3 4 5 4 4 5 6 7 8 9 10 10 11 11 11 11 10 9 8 8 9 9 9 8 8 8 8 7 6 6 6 6 6 6 6 7
8 5 3 4 3 4 6 7 7 6 5 5 5 6 8 8 8 8 9 10 10 10 10 10 10 10 8 8 9 10 8 8 8 8 7 7 7 6 6 5 5 5 4 5
6 4 4 3 3 5 7 6 6 6 5 3 4 7 7 8 8 8 9 9 9 10 10 10 10 10 9 8 8 9 8 7 8 8 7 6 7 7 7 6 5 5 4 4
2 5 5 4 3 3 4 4 5 5 4 4 5 6 6 7 7 8 8 9 8 8 9 9 9 10 9 9 8 8 7 7 8 8 6 6 7 9 9 9 8 8 7 6
3 2 4 3 4 4 5 4 5 5 4 4 5 5 5 5 7 8 8 8 8 9 9 9 10 10 9 8 8 7 7 7 7 6 5 5 6 7 8 8 9 15 12 14
Wind_Direction
208 222 225 224 225 241 254 255 249 220 172 202 223 218 204 194 182 178 177 175 177 179 176 169 171 168 162 160 161 164 172 164 166 172 180 185 179 178 183 189 164 172 197 188
209 224 232 237 235 240 253 255 259 237 185 206 234 224 209 211 196 187 185 184 182 177 174 170 173 171 167 166 167 170 176 173 180 181 184 185 173 180 190 198 170 183 196 198
220 222 220 233 235 233 241 247 251 254 211 216 240 234 215 210 206 192 186 188 188 179 175 173 175 176 174 174 175 178 179 177 186 181 177 187 167 197 193 182 182 194 196 204
231 236 225 222 230 230 236 241 250 255 244 239 233 246 213 204 202 196 191 189 191 182 175 174 176 179 180 178 178 177 176 178 183 184 187 189 190 199 201 188 190 194 200 206
225 226 226 225 226 228 238 241 244 251 249 253 245 247 231 201 202 198 195 193 188 181 177 174 179 179 180 180 178 177 175 181 183 190 192 197 203 204 203 195 196 196 200 210
236 226 225 226 228 229 233 236 238 247 250 245 246 250 248 216 206 203 192 185 182 182 177 173 175 172 178 179 178 176 176 183 184 191 196 198 205 205 205 204 197 198 202 209
228 228 216 220 224 215 219 218 215 220 228 239 241 241 235 216 193 192 190 184 180 181 176 170 169 170 175 179 177 174 174 182 185 191 198 197 201 206 212 211 204 201 209 209
210 218 210 209 223 211 212 217 223 227 226 239 230 230 218 196 175 173 172 178 176 175 172 171 169 169 176 179 177 175 174 180 185 190 195 196 200 207 212 211 211 202 211 221
209 216 205 204 215 223 211 221 235 251 267 260 231 215 192 170 175 180 176 172 177 175 171 167 168 170 177 177 177 177 174 177 182 188 191 194 200 209 214 204 207 213 210 222
241 223 201 197 207 224 227 217 230 245 263 269 256 222 199 169 177 179 175 175 171 169 168 166 167 167 167 169 172 171 170 175 180 186 193 196 198 207 210 203 201 209 212 226
241 237 205 191 202 212 219 222 228 237 246 255 264 277 166 163 166 168 169 163 156 166 166 162 159 153 154 162 163 162 167 168 176 188 191 195 193 198 200 199 205 204 208 212
228 234 218 200 202 221 220 225 223 231 238 256 267 260 79 136 145 145 147 131 123 129 138 142 138 138 144 152 159 164 170 171 174 179 178 186 186 182 186 193 200 198 199 197
214 235 223 202 199 210 224 223 227 229 239 246 252 200 148 141 140 140 130 117 116 108 112 120 121 128 135 146 149 155 163 166 166 166 169 174 173 168 177 185 181 181 178 173
224 230 240 220 204 200 213 223 223 224 229 235 237 190 177 158 154 143 134 132 130 124 119 121 121 124 128 130 130 139 152 151 150 153 158 153 147 148 156 150 140 145 153 152
223 224 243 259 243 215 206 215 220 224 229 237 234 204 188 160 158 147 135 134 132 130 131 128 128 126 130 131 129 130 128 122 130 135 136 132 128 127 128 127 124 122 125 125
216 242 238 250 250 237 221 211 216 221 226 234 239 224 155 139 133 128 127 130 135 137 136 129 126 125 128 128 127 119 108 114 119 125 122 120 122 120 119 114 105 103 97 93
199 231 243 241 239 238 230 219 220 223 225 229 225 211 159 147 134 130 127 131 135 138 136 130 125 122 119 119 116 115 108 116 115 112 111 115 115 114 109 108 99 94 90 87
205 217 244 249 237 236 236 222 225 226 226 222 211 192 167 153 128 119 124 130 133 127 131 130 126 122 117 114 112 106 104 104 106 105 101 100 104 101 97 96 93 90 87 83
204 209 233 243 237 234 229 215 215 215 216 189 183 198 181 142 128 124 124 122 121 124 120 120 120 118 113 112 112 110 109 106 104 100 97 92 94 97 97 97 94 90 89 86
198 203 230 242 241 230 222 212 207 201 191 176 162 157 188 162 167 127 112 111 111 111 113 113 112 112 110 109 110 109 106 101 97 93 91 92 94 95 93 95 96 93 92 90
194 198 217 235 242 248 267 214 193 207 165 143 149 154 164 122 87 105 109 106 105 108 110 112 110 108 105 107 107 105 102 96 94 94 90 90 91 94 95 98 99 100 98 94
196 200 208 227 234 226 322 227 161 89 72 80 117 127 110 99 105 111 110 111 115 116 116 114 109 105 106 110 109 106 102 101 100 97 96 95 91 91 96 101 101 104 109 106
201 200 191 211 210 82 58 67 71 81 81 68 80 101 113 115 117 118 121 123 124 122 116 113 112 108 104 103 106 108 103 101 100 97 95 94 89 83 88 96 102 108 111 107
188 183 188 182 150 88 75 78 69 69 79 78 91 103 109 117 120 121 120 123 124 124 122 119 116 112 106 103 103 106 107 106 106 103 99 97 95 88 73 67 68 67 64 84
213 196 195 173 157 112 82 75 83 77 79 84 92 107 114 121 123 124 123 123 124 124 122 121 119 116 113 111 111 113 114 113 109 107 107 104 93 87 76 64 49 59 51 46
246 239 214 180 148 122 96 67 74 83 81 86 93 98 106 111 118 124 124 125 125 123 121 121 120 119 117 114 112 111 114 118 120 121 123 118 113 109 105 98 79 54 62 62